Regional Weather Roundup
Issued by NWS

Home | Current Version | Previous Version | Text Only | Print | Product List | Glossary Off
Versions: 1 2 3 4 5 6 7 8 9 10 11 12 13 14 15 16 17 18 19 20 21 22 23 24 25 26 27 28 29 30 31 32 33 34 35 36 37 38 39 40 41 42 43 44 45 46 47 48 49 50

307
ASUS45 KABQ 292001
RWRNM
NEW MEXICO REGIONAL WEATHER ROUNDUP
NATIONAL WEATHER SERVICE ALBUQUERQUE NM
200 PM MDT WED MAR 29 2017

NOTE: "FAIR" MEANS FEW OR NO CLOUDS BELOW 12,000 FEET AGL WITH NO
       SIGNIFICANT WEATHER OR OBSTRUCTIONS TO VISION.

      THIS PRODUCT IS RELEASED AS TWO VERSIONS.  ONE VERSION NEAR
      THE TOP OF THE HOUR CONTAINING PRELIMINARY DATA FROM ALBUQUERQUE
      AND OTHER STATIONS.  A FINAL VERSION WITH ADDITIONAL DATA IS
      ISSUED ABOUT 10 MINUTES AFTER THE HOUR.

NMZ501-503-504-510>518-292100-
NORTHWEST PLATEAU/NORTHCENTRAL MOUNTAINS

CITY           SKY/WX    TMP DP  RH WIND       PRES   REMARKS
FARMINGTON     FAIR      61  22  22 W14G25    29.96F
LOS ALAMOS     PTSUNNY   47  30  51 NE13      30.03R
SANTA FE       PTSUNNY   55  31  39 N23G30    29.99S
TAOS             N/A     48  27  43 N13       30.00S
ANGEL FIRE     FAIR      43  26  52 N18G25    30.02S

$$
NMZ402-403-502-505>509-292100-
WESTCENTRAL MOUNTAINS/SOUTHWEST MOUNTAINS

CITY           SKY/WX    TMP DP  RH WIND       PRES   REMARKS
GALLUP         CLOUDY    55  27  34 W8        30.05F
GRANTS         PTSUNNY   55  31  39 NW10G17   30.04F
SILVER CITY    CLOUDY    57  29  33 S3        30.03S

$$
NMZ407-409-411-412-292100-
SOUTHERN DESERTS

CITY           SKY/WX    TMP DP  RH WIND       PRES   REMARKS
DEMING         FAIR      66  33  29 E14       30.00S
LAS CRUCES     FAIR      64  32  30 NE9G17    30.00S
HOLLOMAN AFB   PTSUNNY   57  39  50 NW16      30.03R
ALAMOGORDO       N/A    N/A N/A N/A MISG        N/A
T OR C           N/A     60  33  36 N9G22     29.99F

$$
NMZ519>523-292100-
CENTRAL VALLEYS/CENTRAL HIGHLANDS

CITY           SKY/WX    TMP DP  RH WIND       PRES   REMARKS
ALBUQUERQUE    PTSUNNY   59  34  39 W8        29.98F
DOUBLE EAGLE   PTSUNNY   57  36  44 NW10G22   30.00F
MORIARTY ARPT  PTSUNNY   56  32  41 N16G26    30.00S
CLINES CORNERS CLOUDY    46  35  65 SE10      30.01S
BELEN          FAIR      60  35  39 NW17G23   29.99F
SOCORRO        PTSUNNY   58  35  42 NW6G17    29.99F

$$
NMZ524>526-539-540-292100-
SOUTHCENTRAL MOUNTAINS

CITY           SKY/WX    TMP DP  RH WIND       PRES   REMARKS
RUIDOSO        NOT AVBL

$$
NMZ527>531-292100-
NORTHEAST HIGHLANDS/NORTHEAST PLAINS

CITY           SKY/WX    TMP DP  RH WIND       PRES   REMARKS
LAS VEGAS      CLOUDY    47  29  49 NE13      29.98S
RATON          CLOUDY    43  30  60 N14G29    29.98R
CLAYTON        CLOUDY    45  37  73 N22G35    29.95R

$$
NMZ532>537-292100-
EASTCENTRAL PLAINS

CITY           SKY/WX    TMP DP  RH WIND       PRES   REMARKS
TUCUMCARI      CLOUDY    49  41  74 NE18G24   29.96R
CANNON AFB     CLOUDY    48  45  87 N30G38    29.95R
CLOVIS AIRPORT CLOUDY    48  37  66 N25G37    29.95R

$$
NMZ028-029-538-292100-
SOUTHEAST PLAINS

CITY           SKY/WX    TMP DP  RH WIND       PRES   REMARKS
ROSWELL        LGT RAIN  51  43  74 N13         N/A
ARTESIA        FAIR      54  37  54 N26G37    30.02F
CARLSBAD       PTSUNNY   55  38  52 N25G37    30.01R
HOBBS          LGT RAIN  48  41  76 NW18      29.97R


$$




USA.gov is the U.S. government's official web portal to all federal, state and local government web resources and services.